This is the latest recevied weather packets stored in our database for station/object K2ATL. If no packets are shown the sender has not sent any weather packets the latest 10 day(s).
| Time | Temp. | Humidity | Pressure | Rain* | Wind** | Luminosity | Snow |
|---|---|---|---|---|---|---|---|
| 1788165891 | 20.56° C | 93% | 1106.9 hPa | 0 mm | - | 0 W/m² | - |
| 1788165588 | 20.56° C | 92% | 1106.7 hPa | 0 mm | - | 0 W/m² | - |
| 1788165288 | 20.56° C | 91% | 1106.7 hPa | 0 mm | - | 0 W/m² | - |
| 1788164987 | 21.11° C | 91% | 1106.8 hPa | 0 mm | - | 0 W/m² | - |
| 1788164687 | 21.67° C | 88% | 1106.7 hPa | 0 mm | - | 0 W/m² | - |
| 1788164382 | 22.22° C | 87% | 1106.6 hPa | 0 mm | - | 0 W/m² | - |
| 1788164078 | 22.22° C | 87% | 1106.5 hPa | 0 mm | - | 0 W/m² | - |
| 1788163775 | 22.22° C | 86% | 1106.6 hPa | 0 mm | - | 0 W/m² | - |
| 1788163474 | 22.78° C | 86% | 1106.6 hPa | 0 mm | - | 0 W/m² | - |
| 1788163170 | 22.78° C | 85% | 1106.6 hPa | 0 mm | - | 0 W/m² | - |
| 1788162866 | 22.78° C | 85% | 1106.8 hPa | 0 mm | - | 0 W/m² | - |
| 1788162561 | 22.78° C | 85% | 1106.7 hPa | 0 mm | - | 0 W/m² | - |
| 1788162260 | 22.22° C | 85% | 1106.6 hPa | 0 mm | - | 0 W/m² | - |
| 1788161955 | 22.22° C | 85% | 1106.6 hPa | 0 mm | - | 0 W/m² | - |
| 1788161654 | 21.67° C | 85% | 1106.7 hPa | 0 mm | - | 0 W/m² | - |
| 1788161349 | 21.67° C | 86% | 1106.5 hPa | 0 mm | - | 0 W/m² | - |
| 1788161045 | 21.67° C | 86% | 1106.6 hPa | 0 mm | - | 0 W/m² | - |
| 1788160741 | 21.67° C | 86% | 1106.7 hPa | 0 mm | - | 0 W/m² | - |
| 1788160441 | 22.22° C | 85% | 1106.4 hPa | 0 mm | - | 0 W/m² | - |
| 1788160140 | 22.78° C | 83% | 1106.7 hPa | 0 mm | - | 0 W/m² | - |
| 1788159840 | 22.78° C | 81% | 1106.7 hPa | 0 mm | - | 0 W/m² | - |
| 1788159539 | 22.78° C | 82% | 1107 hPa | 0 mm | - | 0 W/m² | - |
| 1788159237 | 22.78° C | 82% | 1106.6 hPa | 0 mm | - | 0 W/m² | - |
| 1788158932 | 22.78° C | 82% | 1106.8 hPa | 0 mm | - | 0 W/m² | - |
| 1788158627 | 22.78° C | 81% | 1106.8 hPa | 0 mm | - | 0 W/m² | - |
* Rain latest hour (hover to see other rain measurements)
** Current wind speed in m/s (hover to see current wind gust speed)